Regional Weather Roundup
Issued by NWS

Home | Current Version | Previous Version | Text Only | Print | Product List | Glossary Off
Versions: 1 2 3 4 5 6 7 8 9 10 11 12 13 14 15 16 17 18 19 20 21 22 23 24 25 26 27

000
ASUS45 KSLC 120510
RWRUT

UTAH REGIONAL WEATHER ROUNDUP
NATIONAL WEATHER SERVICE SALT LAKE CITY UT
1000 PM MST MON DEC 11 2017

UTZ001>011-023>025-120600-

NORTHERN UTAH

CITY           SKY/WX    TMP DP  RH WIND       PRES   REMARKS
BRIGHAM CITY   CLOUDY    28  25  89 CALM      30.61S
HILL AFB       FOG       24  23  94 CALM      30.57S VSB 1/4
LOGAN          HAZE      16  11  80 CALM      30.60S VSB 1/4
OGDEN          FOG       25  24  96 S5        30.59R VSB 1   WCI  19
SALT LAKE CITY FOG       26  25  96 CALM      30.60S VSB 1/4
TOOELE VALLEY  FOG       23  23 100 CALM      30.61S VSB 1/4
WENDOVER       PTCLDY    17  10  74 CALM      30.60R
HEBER CITY       N/A     18  12  79 E3        30.54R
WEST JORDAN    CLOUDY   N/A N/A N/A CALM      30.60R VSB 1/4

$$

UTZ011>015-024>027-120600-

CENTRAL/NORTHEAST UTAH

CITY           SKY/WX    TMP DP  RH WIND       PRES   REMARKS
PROVO AIRPORT  PTCLDY    19  16  88 SE3       30.59R
MOAB/CANYONLAN MOCLDY    22   0  38 W3        30.49R
DELTA          MOCLDY    18   9  68 E3        30.56S
PRICE          PTCLDY    27   0  31 CALM      30.48R
ROOSEVELT      CLOUDY    21   9  58 W3        30.56R
VERNAL         CLOUDY    19   8  62 W5        30.54R WCI  12

$$

UTZ013>016-019>022-027-120600-

SOUTHERN UTAH

CITY           SKY/WX    TMP DP  RH WIND       PRES   REMARKS
BRYCE CANYON   PTCLDY    19 -13  23 W8        30.54R WCI   9
CEDAR CITY     PTCLDY    26  10  50 S5        30.51R WCI  20
MILFORD        PTCLDY    17   9  70 CALM      30.54S
ST GEORGE      CLEAR     38   3  23 S5        30.43R WCI  34
HANKSVILLE     MOCLDY    21   0  39 MISG      30.52R
BLANDING         N/A     34  -1  23 CALM      30.51R

$$

REGIONAL REPORTS     COLORADO/ARIZONA

CITY           SKY/WX    TMP DP  RH WIND       PRES   REMARKS
CRAIG, CO      CLOUDY    14   8  77 CALM      30.53S
GRAND JUNCTION CLOUDY    23  -1  35 CALM      30.50R
RIFLE, CO      CLOUDY    27   4  37 CALM      30.53R
MONTROSE, CO   CLOUDY    22   1  40 SE10      30.52R WCI  11
CORTEZ, CO     CLOUDY    18   0  45 CALM      30.45R
COLORADO CITY    N/A     21 -11  23 SE5       30.47S WCI  15
PAGE, AZ       PTCLDY    34  15  46 CALM      30.47R HAZE
GRAND CANYON   PTCLDY    24 -17  15 NE5       30.48R WCI  18
KINGMAN, AZ    PTCLDY    37  -3  18 E8        30.36R WCI  31
FLAGSTAFF, AZ  PTCLDY    20  -8  28 CALM      30.46S

$$

REGIONAL REPORTS    NEVADA/IDAHO/WYOMING

CITY           SKY/WX    TMP DP  RH WIND       PRES   REMARKS
LAS VEGAS, NV  CLEAR     47   2  15 SW5       30.34R
ELY, NY        PTCLDY    16  -8  34 S12       30.56R WCI   3
ELKO, NV       MOCLDY    20  15  81 CALM      30.55R
POCATELLO, ID  CLOUDY    19  16  88 CALM      30.57S
BURLEY, ID     FOG       20  19  96 W5        30.57S VSB 1/4 WCI  13
FORT BRIDGER,    N/A     38   7  27 W10       30.54S WCI  30
EVANSTON, WY   CLOUDY    34  11  38 CALM      30.55R
ROCK SPRINGS,  CLOUDY    30  11  45 W6        30.50S WCI  24

$$




USA.gov is the U.S. government's official web portal to all federal, state and local government web resources and services.